BREEZE-M R/B, 43433

Orbit data source: Space-Track

BREEZE-M R/B, 43433 is space debris in GEO originally from a launch on Wed, 18 Apr 2018 UTC launched from the Tyuratam Missile And Space Complex (TTMTR). Debris objects in space refer to the collection of defunct objects orbiting the Earth. Examples of debris include non-operational satellites, rocket bodies, and fragments generated from explosions, collisions, or faulty payload assembly.

Loading next visibility...
Identifier
43433, 2018-037B
Orbit
GEO
Country
Flag of CISCIS
Related business
Manufacturer
Khrunichev
Mission
Spacecraft
Bus & Motor
BRIZ, Unknown motor
Mass
~1,600 kg wet, 1,600 kg dry
Launch date (UTC)
2018-04-18 (8 years ago)
Launch vehicle
Unknown
Launch site
Tyuratam Missile And Space Complex (TTMTR)
Object type
Payload
Rocket body
Debris
Shape & HBR
Cyl, 2.0 m
Radar Cross Section
15.135 m²

Expand to show TLE details & history
Last TLE update: 19 hours ago

TLE from 19 hours ago
0 BREEZE-M R/B
1 43433U 18037B   25353.11114605 -.00000135  00000-0  00000-0 0  9993
2 43433   7.6361  73.1918 0680433  24.0228 338.8356  0.90514116 25575
Epoch: 2025-12-19T02:40Z
TLE epoch observation values (Epoch: 2025-12-19T02:40:03.018Z)
Latitude
-0.00001°
Longitude
-54.97624°
Altitude
35,911.465 km
Speed
3.166 km/s
True Right ascension
04h 51m 58s
True Declination
0° 00' 00"
Sunlit
Object was in daylight at epoch
Visualization orbit readout
Latitude
Unknown
Longitude
Unknown
Altitude
Unknown
Speed
Unknown
Apparent Right ascension
Unknown
Apparent Declination
Unknown
Sunlit
N/A
Visualization observer readout
Local Sidereal Time
20:47:09
Azimuth
Unknown
Elevation
Unknown
Doppler factor
Unknown
Orbital elements
Apogee altitude
41,837.654 km
Perigee altitude
35,694.155 km
Semi-major axis
45,144.041 km
Eccentricity
0.06804
Inclination
7.6361°
RAAN
73.1918°
Arg. of periapsis
24.0228°
True anomaly
335.78033°
Mean anomaly
338.8356°
Eccentric anomaly
337.33319°
Mean motion
0.22628 °/min
Orbital period
1,590.96 mins
BSTAR
0
Loading maneuver chart data...
Computing Atmospheric mass density...
Loading historical data...
Loading historical data...
Loading historical data...
Loading historical data...
Loading historical data...
Loading historical data...
Loading historical data...
Other satellites on launch #37 in the year 2018 (2018-04-18 UTC)

Documentation

Showing up to 5 results
|